Simultaneous Nadir Overpasses (SNOs) Predictions

Prediction of SNOs between LANDSAT-8 and METOP-A Satellite Orbit:

Table of predicted SNOs for the next 14.0 days since TLE Epoch: 6/8/2017
Index Date (LANDSAT-8) Time (LANDSAT-8) Lat,Lon (LANDSAT-8) SZA (LANDSAT-8 ) Date (METOP-A) Time (METOP-A) Lat,Lon (METOP-A) SZA (METOP-A ) Distance(km) Time Diff (sec)
1 06/09/2017 09:59:21 81.20, 71.39 60.55 06/09/2017 09:58:27 81.20, 71.42 60.53 0.46 54
2 06/09/2017 10:48:47 -81.22,-120.69 119.42 06/09/2017 10:49:06 -81.22,-120.68 119.41 0.29 19
3 06/12/2017 05:33:36 81.21, 137.97 60.36 06/12/2017 05:32:46 81.21, 138.16 60.36 3.16 50
4 06/12/2017 06:23:02 -81.23, -54.09 119.60 06/12/2017 06:23:25 -81.23, -53.92 119.57 2.84 23
5 06/15/2017 01:07:53 81.19,-155.85 60.16 06/15/2017 01:07:08 81.20,-155.89 60.14 0.86 45
6 06/15/2017 01:57:19 -81.21, 12.12 119.80 06/15/2017 01:57:47 -81.22, 12.06 119.79 1.13 28
7 06/17/2017 20:42:09 81.20, -89.32 60.07 06/17/2017 20:41:28 81.21, -89.19 60.07 2.39 41
8 06/17/2017 21:31:35 -81.22, 78.67 119.89 06/17/2017 21:32:07 -81.23, 78.78 119.86 1.89 32
9 06/20/2017 16:16:24 81.20, -22.82 60.02 06/20/2017 16:15:48 81.20, -22.89 60.00 1.23 36




NCC Satellite Simultaneous Nadir Overpasses (SNOs) Prediction Service
